CW1459 Weather Reports


time (UTC)temp
F
wind
direction
speed
knots
gust
knots
rain 1hr
in
rain 24hr
in
rain mn
in
humidity
%
barometer
mb
20260509132312 55 87 0.0 1.7 0.02 0.02 0.02 86 1009.6
20260509131335 55 78 0.0 1.7 0.02 0.02 0.02 85 1009.6
20260509130334 55 71 0.9 2.6 0.02 0.02 0.02 84 1009.6
20260509125313 55 9 0.9 2.6 0.01 0.01 0.01 83 1009.5
20260509124340 55 360 0.9 1.7 0.00 0.00 0.00 81 1009.6
20260509123334 56 40 0.9 1.7 0.00 0.00 0.00 78 1009.6
20260509122326 56 19 0.9 2.6 0.00 0.00 0.00 76 1009.7
20260509121313 56 84 0.9 1.7 0.00 0.00 0.00 75 1009.9
20260509120336 56 84 0.9 2.6 0.00 0.00 0.00 76 1009.8
20260509115312 55 49 1.7 4.3 0.00 0.00 0.00 78 1009.6
20260509114321 55 31 0.9 3.5 0.00 0.00 0.00 77 1009.6
20260509113333 56 11 0.9 2.6 0.00 0.00 0.00 77 1009.5
20260509112323 56 360 0.9 2.6 0.00 0.00 0.00 74 1009.5
20260509111336 56 118 0.0 1.7 0.00 0.00 0.00 73 1009.5
20260509110333 56 118 0.9 2.6 0.00 0.00 0.00 70 1009.5
20260509105338 56 311 0.0 2.6 0.00 0.00 0.00 67 1009.5
20260509104313 56 290 1.7 2.6 0.00 0.00 0.00 67 1009.3
20260509103318 56 157 0.9 1.7 0.00 0.00 0.00 63 1009.0
20260509102338 57 298 0.9 2.6 0.00 0.00 0.00 64 1008.9
20260509101317 57 301 1.7 5.2 0.00 0.00 0.00 59 1008.7
20260509100313 57 160 3.5 5.2 0.00 0.00 0.00 60 1008.6
20260509095312 57 157 0.9 2.6 0.00 0.00 0.00 59 1008.7
20260509094315 56 184 1.7 4.3 0.00 0.00 0.00 59 1008.7
20260509093335 56 135 2.6 6.1 0.00 0.00 0.00 62 1008.7
20260509092314 55 242 0.0 1.7 0.00 0.00 0.00 66 1008.7
20260509091314 56 242 0.0 0.9 0.00 0.00 0.00 65 1008.7
20260509090335 56 242 0.0 0.9 0.00 0.00 0.00 63 1008.7
20260509085317 56 242 0.9 1.7 0.00 0.00 0.00 61 1008.8
20260509084311 57 242 0.0 0.9 0.00 0.00 0.00 60 1008.9
20260509083338 58 242 0.0 1.7 0.00 0.00 0.00 57 1008.8
20260509082353 58 222 0.9 5.2 0.00 0.00 0.00 56 1008.9
20260509081336 58 206 1.7 2.6 0.00 0.00 0.00 55 1008.9
20260509080341 59 193 0.9 4.3 0.00 0.00 0.00 55 1009.0
20260509075319 59 201 3.5 6.1 0.00 0.00 0.00 53 1008.9
20260509074333 59 209 2.6 4.3 0.00 0.00 0.00 53 1008.9
20260509073319 59 218 0.9 3.5 0.00 0.00 0.00 54 1009.1
20260509072319 59 186 1.7 7.8 0.00 0.00 0.00 52 1008.9
20260509071318 59 153 1.7 7.0 0.00 0.00 0.00 53 1008.9
20260509070318 59 159 3.5 7.0 0.00 0.00 0.00 53 1008.9
20260509065316 59 143 3.5 6.1 0.00 0.00 0.00 52 1008.9
20260509064318 59 136 2.6 5.2 0.00 0.00 0.00 53 1009.0
20260509063319 59 161 3.5 7.0 0.00 0.00 0.00 53 1009.0
20260509062322 58 180 2.6 5.2 0.00 0.00 0.00 55 1009.2
20260509061340 58 165 1.7 3.5 0.00 0.00 0.00 55 1009.3
20260509060342 60 228 0.9 1.7 0.00 0.00 0.00 52 1009.4
20260509055340 60 225 1.7 5.2 0.00 0.00 0.00 50 1009.3
20260509054316 61 167 1.7 6.1 0.00 0.00 0.00 49 1009.3
20260509053316 61 194 3.5 7.0 0.00 0.00 0.00 49 1009.2
20260509052316 61 186 2.6 7.0 0.00 0.00 0.00 49 1009.2
20260509051357 61 165 3.5 8.7 0.00 0.00 0.00 50 1009.3
20260509050350 59 152 4.3 10.4 0.00 0.00 0.00 53 1009.2
20260509045339 57 149 5.2 7.8 0.00 0.00 0.00 57 1009.2
20260509044340 57 199 0.9 0.9 0.00 0.00 0.00 59 1009.5
20260509043402 58 199 0.0 0.9 0.00 0.00 0.00 56 1009.6
20260509042315 59 199 0.0 0.9 0.00 0.00 0.00 54 1009.7
20260509041338 59 199 0.0 1.7 0.00 0.00 0.00 52 1009.7
20260509040329 59 172 1.7 5.2 0.00 0.00 0.00 51 1009.6
20260509035339 59 128 2.6 5.2 0.00 0.00 0.00 51 1009.8
20260509034340 60 150 1.7 6.1 0.00 0.00 0.00 50 1009.9
20260509033339 60 161 3.5 6.1 0.00 0.00 0.00 49 1009.8
20260509032315 60 145 3.5 6.1 0.00 0.00 0.00 48 1009.8
20260509031316 61 129 2.6 7.0 0.00 0.00 0.00 47 1009.9
20260509030316 61 150 3.5 11.3 0.00 0.00 0.00 47 1009.8
20260509025316 61 140 4.3 7.8 0.00 0.00 0.00 48 1009.8
20260509024314 59 120 3.5 8.7 0.00 0.00 0.00 50 1010.0
20260509023317 58 148 2.6 5.2 0.00 0.00 0.00 55 1010.1
20260509022340 59 252 0.9 2.6 0.00 0.00 0.00 55 1010.3
20260509021315 61 221 0.9 5.2 0.00 0.00 0.00 52 1010.3
20260509020330 61 105 2.6 7.0 0.00 0.00 0.00 47 1010.3
20260509015338 61 126 3.5 6.1 0.00 0.00 0.00 47 1010.1
20260509014352 61 161 1.7 4.3 0.00 0.00 0.00 49 1010.0
20260509013335 60 143 2.6 6.1 0.00 0.00 0.00 51 1010.0
20260509012319 60 142 0.9 2.6 0.00 0.00 0.00 56 1009.9
20260509011349 61 117 0.9 1.7 0.00 0.00 0.00 52 1010.0
20260509010338 61 110 1.7 3.5 0.00 0.00 0.00 51 1010.1
20260509005321 60 126 2.6 6.1 0.00 0.00 0.00 50 1010.1
20260509004322 59 106 1.7 3.5 0.00 0.00 0.00 54 1010.0
20260509003336 60 114 0.9 2.6 0.00 0.00 0.00 55 1009.9
20260509002314 60 122 0.9 2.6 0.00 0.00 0.00 56 1009.9
20260509001316 61 133 0.9 2.6 0.00 0.00 0.00 55 1009.7
20260509000359 62 133 1.7 2.6 0.00 0.00 0.00 50 1009.7
20260508235334 64 351 0.9 0.9 0.00 0.00 0.00 49 1009.5
20260508234338 66 351 0.0 1.7 0.00 0.00 0.00 45 1009.5
20260508233314 66 360 1.7 2.6 0.00 0.00 0.00 42 1009.5
20260508232318 67 351 2.6 5.2 0.00 0.00 0.00 41 1009.5
20260508231315 67 351 1.7 4.3 0.00 0.00 0.00 42 1009.5
20260508230339 67 302 2.6 4.3 0.00 0.00 0.00 40 1009.5
20260508225359 65 300 0.9 1.7 0.00 0.00 0.00 48 1009.5
20260508224338 66 301 0.9 4.3 0.00 0.00 0.00 42 1009.5
20260508223335 66 323 2.6 5.2 0.00 0.00 0.00 42 1009.6
20260508222337 66 331 1.7 5.2 0.00 0.00 0.00 42 1009.5
20260508221335 66 307 3.5 7.8 0.00 0.00 0.00 41 1009.6
20260508220339 66 292 3.5 8.7 0.00 0.00 0.00 40 1009.7
20260508215316 66 289 2.6 8.7 0.00 0.00 0.00 41 1009.6
20260508214334 66 289 3.5 7.8 0.00 0.00 0.00 39 1009.6
20260508213358 66 330 3.5 8.7 0.00 0.00 0.00 39 1009.7
20260508212350 66 310 3.5 13.0 0.00 0.00 0.00 38 1009.7
20260508211316 66 301 4.3 10.4 0.00 0.00 0.00 36 1009.8
20260508210340 67 296 3.5 11.3 0.00 0.00 0.00 35 1009.7
20260508205318 67 284 2.6 10.4 0.00 0.00 0.00 36 1009.6
20260508204320 67 286 6.1 8.7 0.00 0.00 0.00 35 1009.6
20260508203340 67 246 2.6 7.8 0.00 0.00 0.00 36 1009.7
20260508202316 68 246 3.5 8.7 0.00 0.00 0.00 36 1009.8
20260508201353 69 300 4.3 11.3 0.00 0.00 0.00 33 1010.0
20260508200334 71 217 7.0 12.2 0.00 0.00 0.00 32 1009.9
20260508195334 70 309 4.3 14.8 0.00 0.00 0.00 33 1009.7
20260508194317 71 279 6.1 13.9 0.00 0.00 0.00 32 1009.9
20260508193319 70 296 3.5 12.2 0.00 0.00 0.00 35 1010.0
20260508192341 69 261 6.1 10.4 0.00 0.00 0.00 33 1010.3
20260508191327 67 244 4.3 13.9 0.00 0.00 0.00 35 1010.3
20260508190326 67 271 3.5 8.7 0.00 0.00 0.00 36 1010.5
20260508185351 67 236 5.2 13.9 0.00 0.00 0.00 33 1010.7
20260508184316 67 261 4.3 19.1 0.00 0.00 0.00 34 1010.7
20260508183315 69 175 6.1 12.2 0.00 0.00 0.00 33 1010.7
20260508182336 68 180 7.0 13.9 0.00 0.00 0.00 37 1010.8
20260508181324 70 229 5.2 12.2 0.00 0.00 0.00 35 1010.9
20260508180350 68 275 5.2 16.5 0.00 0.00 0.00 34 1011.0
20260508175330 68 230 7.8 13.9 0.00 0.00 0.00 35 1011.2
20260508174338 69 275 6.1 12.2 0.00 0.00 0.00 35 1011.3
20260508173314 66 288 7.8 15.6 0.00 0.00 0.00 35 1011.4
20260508172313 69 232 4.3 13.0 0.00 0.00 0.00 35 1011.3
20260508171328 69 289 7.8 12.2 0.00 0.00 0.00 37 1011.6
20260508170331 67 217 3.5 15.6 0.00 0.00 0.00 37 1011.7
20260508165330 67 296 6.1 15.6 0.00 0.00 0.00 36 1011.9
20260508164317 65 296 7.0 12.2 0.00 0.00 0.00 40 1012.1
20260508163316 65 234 4.3 13.9 0.00 0.00 0.00 40 1012.1
20260508162318 65 258 4.3 9.6 0.00 0.00 0.00 39 1012.2
20260508161316 66 212 6.1 14.8 0.00 0.00 0.00 39 1012.2
20260508160317 66 248 6.1 14.8 0.00 0.00 0.00 38 1012.4
20260508155314 64 277 4.3 14.8 0.00 0.00 0.00 38 1012.4
20260508154334 66 273 4.3 12.2 0.00 0.00 0.00 40 1012.5
20260508153321 64 262 8.7 13.0 0.00 0.00 0.00 39 1012.7
20260508152313 64 295 6.1 12.2 0.00 0.00 0.00 38 1012.8
20260508151315 63 273 7.0 12.2 0.00 0.00 0.00 39 1012.8
20260508150326 63 255 5.2 14.8 0.00 0.00 0.00 41 1012.9
20260508145337 63 285 9.6 17.4 0.00 0.00 0.00 40 1013.0
20260508144317 63 211 6.1 13.9 0.00 0.00 0.00 43 1013.1
20260508143319 61 281 4.3 15.6 0.00 0.00 0.00 44 1013.1
20260508142312 61 299 6.1 11.3 0.00 0.00 0.00 44 1013.2
20260508141315 61 234 4.3 11.3 0.00 0.00 0.00 45 1013.3
20260508140336 61 241 6.1 12.2 0.00 0.00 0.00 46 1013.3
20260508135333 59 175 5.2 9.6 0.00 0.00 0.00 52 1013.4
20260508134353 59 219 4.3 7.8 0.00 0.00 0.00 51 1013.5
20260508133336 57 215 4.3 7.0 0.00 0.00 0.00 55 1013.6